George, South Africa

5:38 PM SAST on April 20, 2018 (GMT +0200)
George

Weather History for FAGG - May, 2013

Change the Weather History Date:

Thursday, May 9, 2013

  Actual Average Record
Temperature  
Mean Temperature 56 °F -  
Max Temperature 63 °F 67 °F 80 °F (1997)
Min Temperature 48 °F 48 °F 48 °F (2002)
Degree Days  
Heating Degree Days 10    
Growing Degree Days 6 (Base 50)    
Moisture  
Dew Point 48 °F    
Average Humidity 75    
Maximum Humidity 94    
Minimum Humidity 41    
Precipitation  
Precipitation 0.00 in - - ()
Sea Level Pressure  
Sea Level Pressure 30.11 in    
Wind  
Wind Speed 7 mph ()    
Max Wind Speed 12 mph    
Max Gust Speed -    
Visibility 7.2 miles    
Events Rain    
Averages and records for this station are not official NWS values.
T = Trace of Precipitation, MM = Missing Value Source: Averaged Metar Reports

Daily Weather History Graph

Daily Weather History Graph

Search for Another Location

Airport or City:

Astronomy

May. 09, 2013 Rise Set
Actual Time 7:11 AM SAST 5:42 PM SAST
Civil Twilight 6:45 AM SAST 6:08 PM SAST
Nautical Twilight 6:15 AM SAST 6:38 PM SAST
Astronomical Twilight 5:45 AM SAST 7:07 PM SAST
Moon 6:31 AM SAST (5/9) 5:23 PM SAST (5/9)
Length of Visible Light 11h 23m
Length of Day
10h 30m
Waning Crescent, 0% of the Moon is Illuminated
May 9
Waning Crescent
May 10
New
May 18
First Quarter
May 25
Full
May 31
Last Quarter

Hourly Weather History & Observations

Time (SAST) Temp. Dew Point Humidity Pressure Visibility Wind Dir Wind Speed Gust Speed Precip Events Conditions
12:00 AM 59.0 °F 55.4 °F 88% 29.95 in 6.2 mi West 10.4 mph - N/A   Mostly Cloudy
1:00 AM 57.2 °F 53.6 °F 88% 29.98 in 6.2 mi WNW 8.1 mph - N/A   Scattered Clouds
2:00 AM 56 °F 53 °F 84% 29.99 in 25 mi NW 8.1 mph - -  
2:00 AM 57.2 °F 51.8 °F 82% 29.98 in 6.2 mi WNW 10.4 mph - N/A   Mostly Cloudy
3:00 AM 57.2 °F 53.6 °F 88% 29.98 in 6.2 mi West 10.4 mph - N/A   Mostly Cloudy
5:00 AM 54 °F 52 °F 90% 30.04 in 5 mi South 4.6 mph - - Rain Light Rain
5:00 AM 53.6 °F 51.8 °F 94% 30.04 in 5.0 mi South 4.6 mph - N/A Rain Light Rain
6:00 AM 53.6 °F 51.8 °F 94% 30.06 in 6.2 mi NW 5.8 mph - N/A   Mostly Cloudy
7:00 AM 53.6 °F 50.0 °F 88% 30.06 in 6.2 mi WNW 5.8 mph - N/A   Mostly Cloudy
8:00 AM 54 °F 51 °F 86% 30.11 in 12 mi WNW 8.1 mph - -   Mostly Cloudy
8:00 AM 53.6 °F 51.8 °F 94% 30.09 in 6.2 mi WNW 8.1 mph - N/A   Mostly Cloudy
9:00 AM 55.4 °F 51.8 °F 88% 30.12 in 6.2 mi NW 6.9 mph - N/A   Mostly Cloudy
10:00 AM 59.0 °F 53.6 °F 82% 30.15 in 6.2 mi WNW 9.2 mph - N/A   Scattered Clouds
11:00 AM 62 °F 51 °F 57% 30.16 in 12 mi West 8.1 mph - -   Partly Cloudy
11:00 AM 60.8 °F 51.8 °F 72% 30.15 in 6.2 mi WNW 8.1 mph - N/A   Scattered Clouds
12:00 PM 62.6 °F 48.2 °F 59% 30.15 in 6.2 mi South 9.2 mph - N/A   Scattered Clouds
1:00 PM 62.6 °F 46.4 °F 55% 30.12 in 6.2 mi SSW 10.4 mph - N/A   Scattered Clouds
2:00 PM 62 °F 44 °F 41% 30.14 in 12 mi South 10.4 mph - -   Partly Cloudy
2:00 PM 60.8 °F 44.6 °F 55% 30.12 in 6.2 mi South 10.4 mph - N/A   Scattered Clouds
3:00 PM 60.8 °F 44.6 °F 55% 30.15 in 6.2 mi South 11.5 mph - N/A   Scattered Clouds
4:00 PM 59.0 °F 46.4 °F 63% 30.15 in 6.2 mi South 9.2 mph - N/A   Scattered Clouds
5:00 PM 58 °F 45 °F 53% 30.18 in 12 mi South 4.6 mph - -   Partly Cloudy
5:00 PM 59.0 °F 44.6 °F 59% 30.15 in 6.2 mi South 4.6 mph - N/A   Scattered Clouds
6:00 PM 55.4 °F 46.4 °F 72% 30.18 in 6.2 mi South 2.3 mph - N/A   Partly Cloudy
7:00 PM 53.6 °F 42.8 °F 67% 30.18 in 6.2 mi SE 1.2 mph - N/A   Partly Cloudy
8:00 PM 51 °F 44 °F 71% 30.21 in 12 mi North 3.5 mph - -   Scattered Clouds
8:00 PM 50.0 °F 44.6 °F 82% 30.18 in 6.2 mi North 3.5 mph - N/A   Partly Cloudy
9:00 PM 48.2 °F 42.8 °F 82% 30.18 in - NW 3.5 mph - N/A   Clear
10:00 PM 48.2 °F 42.8 °F 82% 30.18 in - NNW 3.5 mph - N/A   Clear
11:00 PM 48.2 °F 42.8 °F 82% 30.21 in - North 2.3 mph - N/A   Clear